Погода в Шелангере

Россия / Республика Марий Эл     56°13′07″N   48°15′00″E
темп.,
°C
ветер,
м/с
пор.,
м/с
влажн.,
%
обл.,
%
осадки,
мм/ч
давл.,
гПа
погр.,
м
29 июня, ср
ср2900:00+7ссз387945 0.0 1020169
03:00+6с257999 0.0 1021120
06:00+10ссз47686 0.0 1021373
09:00+16ссз58494 0.0 10201487
12:00+18с574136 0.0 10191797
15:00+19с574010 0.0 10181979
18:00+18с36521 0.0 1017948
21:00+12зсз22705 0.0 101716
30 июня, чт
чт3000:00+10сз2384100 0.0 101642
03:00+9сз347977 0.0 101574
06:00+12сз3668100 0.0 1014244
09:00+18ссз474681 0.0 10121356
12:00+20ссз563692 0.0 10112573
15:00+18зсз3553100 0.0 1010643
18:00+14св5972100 0.3 1012925
21:00+9ссв377915 0.3 1014147
1 июля, пт
пт100:00+6с39905 0.0 1014216
03:00+5с411876 0.0 1015349
06:00+8с5107168 0.0 1015632
09:00+12ссв6865100 0.1 10151327
12:00+12ссв497553 0.0 1015939
15:00+17св696032 0.3 10141681
18:00+17ссв611605 0.7 10151340
21:00+13ссв4127039 0.7 1015350
2 июля, сб
сб200:00+10ссв3117938 0.0 1015199
03:00+8ссв368255 0.0 1016104
06:00+13с356676 0.0 1015177
09:00+19с244712 0.0 1014929
12:00+22ссз3440100 0.0 10132071
15:00+17с266669 0.0 1012158
18:00+19с466233 0.0 1012496
21:00+14с3678100 0.0 1012175
3 июля, вс
вс300:00+13с248285 0.0 1012112
03:00+10с239749 0.0 101255
06:00+14с35835 0.0 1012277
09:00+19с456465 0.0 10111245
12:00+19с566488 0.1 10111380
15:00+21с59493 0.2 10101913
18:00+19ссз246097 0.0 1009113
21:00+16ссз2268100 0.0 100931